When you browse on this site, cookies collect data to enhance your experience and personalize the content and advertising you see.
Visit our Privacy Policy to learn more. By continuing to use the site, you agree to this use of cookies and data.
  • In Spain
  • List of Countries
  • For 7 days
  • Water Temperature
  • Weather Map
  • Weather Widgets
  • user-avatar
    Login

    Hourly Weather Vila Real

    Today, 31 May, Sunday

    Time Temperature Precipitation Wind Pressure Humidity
    00:00 +16°C° 0 mm 0 mps 717 mmHg 81%
    01:00 +16°C° 0 mm 0 mps 717 mmHg 80%
    02:00 +18°C° 0 mm 1 mps 717 mmHg 80%
    03:00 +18°C° 0.1 mm 1 mps 717 mmHg 80%
    04:00 +19°C° 0.1 mm 1 mps 717 mmHg 81%
    05:00 +19°C° 0.1 mm 1 mps 717 mmHg 81%
    06:00 +20°C° 0.1 mm 1 mps 717 mmHg 76%
    07:00 +22°C° 0.1 mm 1 mps 718 mmHg 70%
    08:00 +22°C° 0.1 mm 0 mps 718 mmHg 64%
    09:00 +25°C° 0.3 mm 1 mps 718 mmHg 58%
    10:00 +27°C° 0.3 mm 1 mps 718 mmHg 52%
    11:00 +29°C° 0.3 mm 1 mps 718 mmHg 45%
    12:00 +29°C° 0.1 mm 1 mps 718 mmHg 44%
    13:00 +29°C° 0.1 mm 1 mps 718 mmHg 42%
    14:00 +29°C° 0.1 mm 2 mps 717 mmHg 41%
    15:00 +27°C° 1.9 mm 2 mps 717 mmHg 53%
    16:00 +24°C° 1.9 mm 2 mps 717 mmHg 65%
    17:00 +22°C° 1.9 mm 1 mps 717 mmHg 77%
    18:00 +21°C° 0.5 mm 1 mps 717 mmHg 78%
    19:00 +20°C° 0.5 mm 1 mps 718 mmHg 79%
    20:00 +17°C° 0.5 mm 0 mps 718 mmHg 81%
    21:00 +17°C° 0 mm 0 mps 718 mmHg 82%
    22:00 +18°C° 0 mm 1 mps 718 mmHg 83%
    23:00 +18°C° 0 mm 1 mps 718 mmHg 84%

    Tomorrow, 1 June, Monday

    Time Temperature Precipitation Wind Pressure Humidity
    00:00 +18°C° 0 mm 1 mps 718 mmHg 85%
    01:00 +16°C° 0 mm 1 mps 718 mmHg 86%
    02:00 +16°C° 0 mm 1 mps 718 mmHg 87%
    03:00 +16°C° 0 mm 1 mps 718 mmHg 87%
    04:00 +18°C° 0 mm 1 mps 718 mmHg 87%
    05:00 +18°C° 0 mm 1 mps 718 mmHg 87%
    06:00 +20°C° 0 mm 1 mps 719 mmHg 80%
    07:00 +22°C° 0 mm 1 mps 719 mmHg 73%
    08:00 +23°C° 0 mm 1 mps 720 mmHg 66%
    09:00 +24°C° 0.4 mm 1 mps 720 mmHg 62%
    10:00 +25°C° 0.4 mm 2 mps 720 mmHg 59%
    11:00 +26°C° 0.4 mm 2 mps 720 mmHg 55%
    12:00 +27°C° 0.6 mm 2 mps 720 mmHg 55%
    13:00 +27°C° 0.6 mm 3 mps 720 mmHg 55%
    14:00 +27°C° 0.6 mm 3 mps 720 mmHg 55%
    15:00 +26°C° 0.7 mm 2 mps 719 mmHg 59%
    16:00 +25°C° 0.7 mm 2 mps 719 mmHg 63%
    17:00 +24°C° 0.7 mm 2 mps 719 mmHg 67%
    18:00 +23°C° 0 mm 1 mps 719 mmHg 72%
    19:00 +21°C° 0 mm 1 mps 719 mmHg 76%
    20:00 +18°C° 0 mm 0 mps 720 mmHg 81%
    21:00 +18°C° 0 mm 0 mps 719 mmHg 82%
    22:00 +17°C° 0 mm 0 mps 719 mmHg 83%
    23:00 +17°C° 0 mm 0 mps 719 mmHg 84%

    Day after tomorrow, 2 June, Tuesday

    Time Temperature Precipitation Wind Pressure Humidity
    00:00 +17°C° 0 mm 0 mps 719 mmHg 84%
    01:00 +17°C° 0 mm 0 mps 719 mmHg 84%
    02:00 +16°C° 0 mm 0 mps 719 mmHg 84%
    03:00 +17°C° 0 mm 0 mps 719 mmHg 84%
    04:00 +17°C° 0 mm 0 mps 719 mmHg 83%
    05:00 +19°C° 0 mm 1 mps 719 mmHg 83%
    06:00 +19°C° 0 mm 0 mps 719 mmHg 76%
    07:00 +21°C° 0 mm 0 mps 720 mmHg 68%
    08:00 +23°C° 0 mm 0 mps 720 mmHg 61%
    09:00 +26°C° 0.1 mm 1 mps 720 mmHg 56%
    10:00 +27°C° 0.1 mm 1 mps 720 mmHg 50%
    11:00 +28°C° 0.1 mm 1 mps 720 mmHg 44%
    12:00 +28°C° 0.5 mm 2 mps 719 mmHg 47%
    13:00 +27°C° 0.5 mm 2 mps 719 mmHg 51%
    14:00 +27°C° 0.5 mm 3 mps 718 mmHg 55%
    15:00 +26°C° 0.5 mm 3 mps 718 mmHg 60%
    16:00 +25°C° 0.5 mm 3 mps 718 mmHg 65%
    17:00 +24°C° 0.5 mm 3 mps 718 mmHg 70%
    18:00 +21°C° 0.4 mm 2 mps 718 mmHg 75%
    19:00 +20°C° 0.4 mm 2 mps 718 mmHg 81%
    20:00 +19°C° 0.4 mm 1 mps 718 mmHg 86%
    21:00 +19°C° 0 mm 1 mps 718 mmHg 88%
    22:00 +18°C° 0 mm 1 mps 717 mmHg 89%
    23:00 +18°C° 0 mm 1 mps 717 mmHg 91%

    3 June, Wednesday

    Time Temperature Precipitation Wind Pressure Humidity
    00:00 +16°C° 0 mm 1 mps 717 mmHg 92%
    01:00 +16°C° 0 mm 1 mps 717 mmHg 93%
    02:00 +16°C° 0 mm 1 mps 716 mmHg 94%
    03:00 +16°C° 0 mm 1 mps 716 mmHg 93%
    04:00 +16°C° 0 mm 1 mps 716 mmHg 92%
    05:00 +16°C° 0 mm 1 mps 716 mmHg 92%
    06:00 +18°C° 0.1 mm 1 mps 716 mmHg 90%
    07:00 +18°C° 0.1 mm 1 mps 716 mmHg 89%
    08:00 +19°C° 0.1 mm 1 mps 716 mmHg 87%
    09:00 +19°C° 0.2 mm 2 mps 716 mmHg 81%
    10:00 +20°C° 0.2 mm 3 mps 716 mmHg 76%
    11:00 +21°C° 0.2 mm 3 mps 716 mmHg 70%
    12:00 +21°C° 0.3 mm 4 mps 715 mmHg 70%
    13:00 +21°C° 0.3 mm 4 mps 715 mmHg 70%
    14:00 +21°C° 0.3 mm 4 mps 715 mmHg 70%
    15:00 +19°C° 0.4 mm 3 mps 714 mmHg 75%
    16:00 +18°C° 0.4 mm 3 mps 714 mmHg 80%
    17:00 +17°C° 0.4 mm 2 mps 714 mmHg 86%
    18:00 +18°C° 0.2 mm 1 mps 714 mmHg 87%
    19:00 +18°C° 0.2 mm 1 mps 713 mmHg 88%
    20:00 +16°C° 0.2 mm 1 mps 713 mmHg 90%
    21:00 +16°C° 0.5 mm 1 mps 713 mmHg 91%
    22:00 +16°C° 0.5 mm 1 mps 713 mmHg 92%
    23:00 +16°C° 0.5 mm 1 mps 712 mmHg 92%

    4 June, Thursday

    Time Temperature Precipitation Wind Pressure Humidity
    00:00 +16°C° 0.7 mm 1 mps 712 mmHg 93%
    01:00 +16°C° 0.7 mm 1 mps 711 mmHg 93%
    02:00 +16°C° 0.7 mm 1 mps 711 mmHg 94%
    03:00 +16°C° 1.6 mm 1 mps 710 mmHg 94%
    04:00 +16°C° 1.6 mm 1 mps 710 mmHg 94%
    05:00 +14°C° 1.6 mm 0 mps 710 mmHg 94%
    06:00 +16°C° 0.9 mm 1 mps 710 mmHg 93%
    07:00 +16°C° 0.9 mm 1 mps 711 mmHg 91%
    08:00 +16°C° 0.9 mm 1 mps 711 mmHg 90%
    09:00 +18°C° 0.8 mm 1 mps 711 mmHg 86%
    10:00 +19°C° 0.8 mm 1 mps 711 mmHg 83%
    11:00 +19°C° 0.8 mm 2 mps 711 mmHg 80%
    12:00 +19°C° 1.7 mm 2 mps 711 mmHg 80%
    13:00 +19°C° 1.7 mm 2 mps 711 mmHg 80%
    14:00 +19°C° 1.7 mm 2 mps 710 mmHg 80%
    15:00 +18°C° 2 mm 2 mps 710 mmHg 83%
    16:00 +18°C° 2 mm 1 mps 710 mmHg 85%
    17:00 +16°C° 2 mm 1 mps 710 mmHg 88%
    18:00 +15°C° 0.5 mm 1 mps 710 mmHg 88%
    19:00 +15°C° 0.5 mm 1 mps 711 mmHg 89%
    20:00 +15°C° 0.5 mm 1 mps 711 mmHg 89%
    21:00 +14°C° 0.4 mm 1 mps 711 mmHg 89%
    22:00 +14°C° 0.4 mm 1 mps 711 mmHg 89%
    23:00 +14°C° 0.4 mm 1 mps 711 mmHg 90%

    5 June, Friday

    Time Temperature Precipitation Wind Pressure Humidity
    00:00 +14°C° 0.6 mm 1 mps 710 mmHg 90%
    01:00 +14°C° 0.6 mm 2 mps 710 mmHg 89%
    02:00 +13°C° 0.6 mm 2 mps 710 mmHg 89%
    03:00 +13°C° 0.1 mm 2 mps 710 mmHg 89%
    04:00 +13°C° 0.1 mm 2 mps 711 mmHg 89%
    05:00 +13°C° 0.1 mm 2 mps 711 mmHg 89%
    06:00 +13°C° 0.3 mm 3 mps 711 mmHg 85%
    07:00 +14°C° 0.3 mm 3 mps 712 mmHg 80%
    08:00 +15°C° 0.3 mm 4 mps 712 mmHg 75%
    09:00 +17°C° 0.7 mm 4 mps 712 mmHg 72%
    10:00 +16°C° 0.7 mm 5 mps 712 mmHg 70%
    11:00 +17°C° 0.7 mm 5 mps 713 mmHg 67%
    12:00 +17°C° 0.3 mm 6 mps 713 mmHg 63%
    13:00 +19°C° 0.3 mm 6 mps 713 mmHg 58%
    14:00 +19°C° 0.3 mm 6 mps 713 mmHg 54%
    15:00 +17°C° 0.4 mm 6 mps 713 mmHg 60%
    16:00 +16°C° 0.4 mm 5 mps 713 mmHg 67%
    17:00 +15°C° 0.4 mm 5 mps 713 mmHg 73%
    18:00 +14°C° 0.3 mm 4 mps 713 mmHg 78%
    19:00 +13°C° 0.3 mm 4 mps 713 mmHg 82%
    20:00 +13°C° 0.3 mm 3 mps 713 mmHg 87%
    21:00 +12°C° 2.8 mm 3 mps 713 mmHg 89%
    22:00 +12°C° 2.8 mm 3 mps 713 mmHg 90%
    23:00 +12°C° 2.8 mm 3 mps 713 mmHg 92%
    Show more